Погода в Харбале 1-ой

Россия / Республика Саха (Якутия)     61°59′35″N   132°34′58″E
темп.,
°C
ветер,
м/с
пор.,
м/с
влажн.,
%
обл.,
%
осадки,
мм/ч
давл.,
гПа
погр.,
м
27 февраля, сб
сб2700:00−33в229816 0.0 103419
03:00−34в23988 0.0 103219
06:00−34в22980 0.0 103219
09:00−31в349619 0.0 1030121
12:00−26в349152 0.0 1029299
15:00−24всв469260 0.0 1025367
18:00−27всв3495100 0.0 102365
21:00−29всв3596100 0.0 102097
28 февраля, вс
вс2800:00−29всв3792100 0.0 1018148
03:00−30св3492100 0.0 101576
06:00−30с2390100 0.0 101523
09:00−28ссв3589100 0.0 1016163
12:00−25зюз2285100 0.0 1018420
15:00−23зюз3491100 0.1 1019547
18:00−25зюз3598100 0.1 1022166
21:00−25з3698100 0.2 1024259
1 марта, пн
пн100:00−27з3696100 0.1 1024258
03:00−29зюз2398100 0.1 102565
06:00−29зюз3598100 0.0 1025106
09:00−28зюз3596100 0.1 1026273
12:00−26зюз3484100 0.0 1026793
15:00−26з3484100 0.1 1025936
18:00−28з2294100 0.0 102719
21:00−31зюз229798 0.1 102719
2 марта, вт
вт200:00−32зюз229998 0.0 102719
03:00−34зюз2210099 0.0 102619
06:00−36з2210094 0.0 102719
09:00−33зюз239788 0.0 102791
12:00−29зюз238995 0.0 1026366
15:00−27з238897 0.1 1026591
18:00−29з2298100 0.1 102619
21:00−30зсз1198100 0.2 102619
3 марта, ср
ср300:00−30зсз1198100 0.1 102619
03:00−30зсз0198100 0.1 102519
06:00−31зсз0198100 0.0 102419
09:00−30з0196100 0.1 1024111
12:00−27зсз1186100 0.0 1022486
15:00−26зсз1280100 0.1 1020770
18:00−30сз2296100 0.0 101919
21:00−33зсз229999 0.0 101819